TimeCST,TemperatureF,Dew PointF,Humidity,Sea Level PressureIn,VisibilityMPH,Wind Direction,Wind SpeedMPH,Gust SpeedMPH,PrecipitationIn,Events,Conditions,WindDirDegrees,DateUTC
12:00 AM,66,47,38,30.18,,NW,5.8,,,,,320,2013-09-07 06:00:00
12:00 AM,65.8,46.6,50,30.18,-9999.0,NW,5.8,-,N/A,,Unknown,320,2013-09-07 06:00:00
1:00 AM,63.3,48.4,58,30.19,-9999.0,NNW,5.8,-,N/A,,Unknown,340,2013-09-07 07:00:00
2:00 AM,60.3,52.3,75,30.18,-9999.0,North,4.6,-,N/A,,Unknown,360,2013-09-07 08:00:00
3:00 AM,59.2,53.6,82,30.15,-9999.0,NE,8.1,-,0.01,,Unknown,40,2013-09-07 09:00:00
4:00 AM,58.5,53.4,83,30.14,-9999.0,NNE,8.1,-,0.04,,Unknown,30,2013-09-07 10:00:00
5:00 AM,57.9,53.4,85,30.17,-9999.0,ENE,5.8,-,0.02,,Unknown,70,2013-09-07 11:00:00
6:00 AM,58,53,80,30.17,,North,3.5,,,,,10,2013-09-07 12:00:00
6:00 AM,57.6,53.4,86,30.17,-9999.0,North,3.5,-,N/A,,Unknown,10,2013-09-07 12:00:00
7:00 AM,57.7,53.4,85,30.16,-9999.0,North,3.5,-,N/A,,Unknown,10,2013-09-07 13:00:00
8:00 AM,58.1,54.0,86,30.17,-9999.0,NE,8.1,-,N/A,,Unknown,50,2013-09-07 14:00:00
9:00 AM,58.6,54.0,84,30.18,-9999.0,ENE,8.1,-,N/A,,Unknown,60,2013-09-07 15:00:00
10:00 AM,59.0,54.7,86,30.18,-9999.0,ENE,9.2,-,N/A,,Unknown,70,2013-09-07 16:00:00
11:00 AM,61.5,55.9,82,30.17,-9999.0,East,12.7,-,N/A,,Unknown,80,2013-09-07 17:00:00
12:00 PM,64,54,63,30.17,,ENE,15.0,,,,,70,2013-09-07 18:00:00
12:00 PM,63.7,54.5,72,30.17,-9999.0,ENE,15.0,-,N/A,,Unknown,70,2013-09-07 18:00:00
1:00 PM,63.5,54.3,72,30.18,-9999.0,East,11.5,-,N/A,,Unknown,80,2013-09-07 19:00:00
2:00 PM,64.4,55.0,72,30.17,-9999.0,East,11.5,-,N/A,,Unknown,80,2013-09-07 20:00:00
3:00 PM,68.7,56.1,64,30.14,-9999.0,ENE,12.7,-,N/A,,Unknown,70,2013-09-07 21:00:00
4:00 PM,68.4,54.0,60,30.14,-9999.0,ESE,12.7,-,N/A,,Unknown,110,2013-09-07 22:00:00
5:00 PM,68.9,53.1,57,30.12,-9999.0,East,12.7,-,N/A,,Unknown,100,2013-09-07 23:00:00
6:00 PM,70,52,42,30.11,,ESE,17.3,,,,,110,2013-09-08 00:00:00
6:00 PM,69.6,51.8,53,30.11,-9999.0,ESE,17.3,-,N/A,,Unknown,110,2013-09-08 00:00:00
7:00 PM,66.2,51.8,60,30.10,-9999.0,ESE,16.1,-,N/A,,Unknown,110,2013-09-08 01:00:00
8:00 PM,63.9,52.9,67,30.09,-9999.0,East,11.5,-,N/A,,Unknown,100,2013-09-08 02:00:00
9:00 PM,62.8,52.2,68,30.09,-9999.0,East,12.7,-,N/A,,Unknown,100,2013-09-08 03:00:00
10:00 PM,61.7,52.0,70,30.10,-9999.0,ESE,10.4,-,N/A,,Unknown,110,2013-09-08 04:00:00
11:00 PM,60.1,52.0,75,30.09,-9999.0,ESE,9.2,-,N/A,,Unknown,110,2013-09-08 05:00:00